Temperature
4 4 4 4 4 3 3 3 3 3 3 3 3 3 3 3 3 3 3 3 3 3 3 3 3 2 2 2 2 2 2 2 1 1 1 1 1 1 1 2 2 2 2
3 3 3 3 3 3 3 3 3 3 3 3 3 2 3 3 3 3 3 3 2 2 2 2 2 2 2 2 2 2 2 1 1 1 1 1 1 1 1 1 1 1 1
3 3 3 3 3 3 2 2 2 2 3 3 2 2 2 2 2 2 2 2 2 2 2 2 2 1 1 1 1 1 1 1 1 1 1 0 0 0 0 0 0 0 0
3 3 2 2 2 2 2 2 2 2 2 2 2 2 2 2 2 2 2 2 2 2 1 1 1 1 1 1 1 1 1 1 0 0 0 -0 -0 -0 -0 -0 -0 -0 -0
2 2 2 2 2 2 2 2 2 2 2 2 2 1 1 1 2 2 2 1 1 1 1 1 1 1 1 1 1 1 1 0 0 -0 -0 -0 -1 -1 -1 -1 -1 -1 -1
2 2 2 1 1 1 1 1 1 1 1 1 1 1 1 1 1 1 1 1 1 1 1 1 1 1 0 0 0 0 0 0 -0 -0 -1 -1 -1 -1 -1 -1 -1 -2 -2
1 1 1 1 1 1 1 1 1 1 1 1 1 1 1 1 1 1 1 1 1 0 0 0 0 0 0 0 0 0 -0 -0 -0 -1 -1 -1 -1 -1 -1 -2 -2 -2 -2
1 1 1 1 1 1 0 0 0 0 0 0 0 0 0 0 0 0 0 0 0 -0 -0 0 0 0 -0 -0 -0 -0 -0 -1 -1 -1 -1 -1 -1 -1 -2 -2 -2 -2 -2
0 0 0 0 0 0 -0 -0 -0 -0 -0 -0 -0 -0 -0 -0 -0 -0 -0 -0 -0 -0 -0 -0 -0 -0 -0 -1 -1 -1 -1 -1 -1 -1 -1 -1 -1 -2 -2 -2 -2 -3 -3
0 -0 -0 -0 -0 -0 -1 -1 -1 -1 -0 -0 -1 -1 -1 -1 -1 -1 -1 -1 -1 -0 -1 -1 -1 -1 -1 -1 -1 -1 -1 -1 -1 -1 -2 -2 -2 -2 -2 -2 -3 -3 -3
-0 -0 -1 -1 -1 -1 -1 -1 -1 -1 -1 -1 -1 -1 -1 -1 -1 -1 -1 -1 -1 -1 -1 -1 -1 -1 -1 -1 -1 -1 -2 -2 -2 -2 -2 -2 -2 -3 -3 -3 -3 -3 -3
-1 -1 -1 -1 -1 -1 -1 -2 -1 -1 -1 -1 -2 -2 -2 -2 -2 -1 -1 -1 -1 -1 -1 -1 -2 -2 -2 -2 -2 -2 -2 -2 -2 -2 -3 -3 -3 -3 -3 -3 -3 -4 -4
-1 -1 -1 -2 -2 -2 -2 -2 -2 -2 -2 -2 -2 -2 -2 -2 -2 -2 -2 -2 -2 -2 -2 -2 -2 -2 -2 -2 -2 -3 -3 -3 -3 -3 -3 -3 -3 -4 -4 -4 -4 -4 -4
-2 -2 -2 -2 -2 -2 -2 -2 -2 -2 -2 -2 -2 -3 -3 -3 -3 -3 -2 -2 -2 -2 -3 -3 -3 -3 -3 -3 -3 -3 -3 -3 -3 -4 -4 -4 -4 -4 -4 -4 -4 -4 -4
-2 -2 -2 -3 -3 -3 -3 -3 -3 -3 -3 -3 -3 -3 -3 -3 -3 -3 -3 -3 -3 -3 -3 -3 -3 -3 -3 -3 -3 -4 -4 -4 -4 -4 -4 -4 -4 -4 -4 -5 -5 -5 -5
-3 -3 -3 -3 -3 -3 -3 -3 -3 -3 -3 -3 -3 -3 -3 -3 -3 -3 -3 -3 -3 -3 -3 -3 -4 -4 -4 -4 -4 -4 -4 -4 -4 -4 -5 -5 -5 -5 -5 -5 -5 -5 -5
-3 -3 -3 -3 -3 -3 -3 -3 -3 -3 -3 -3 -3 -3 -3 -3 -3 -4 -4 -4 -4 -4 -4 -4 -4 -4 -4 -4 -4 -4 -4 -4 -5 -5 -5 -5 -5 -5 -5 -5 -5 -5 -6
-4 -4 -4 -4 -4 -4 -4 -4 -4 -4 -4 -3 -4 -4 -4 -4 -4 -4 -4 -4 -4 -4 -4 -4 -4 -4 -4 -4 -5 -5 -5 -5 -5 -5 -5 -5 -5 -5 -5 -6 -6 -6 -6
-4 -4 -4 -4 -4 -4 -4 -4 -4 -4 -4 -4 -4 -4 -4 -4 -4 -4 -4 -4 -4 -4 -5 -5 -5 -4 -5 -5 -5 -5 -5 -5 -5 -5 -5 -5 -5 -5 -6 -6 -6 -6 -6
-4 -4 -4 -4 -4 -4 -4 -4 -4 -4 -4 -5 -5 -5 -5 -5 -5 -4 -5 -5 -5 -5 -5 -5 -5 -5 -5 -5 -5 -5 -5 -5 -5 -5 -6 -6 -6 -6 -6 -6 -6 -6 -6
-5 -5 -5 -5 -5 -5 -5 -5 -5 -5 -5 -5 -5 -5 -5 -5 -5 -5 -5 -5 -5 -5 -5 -5 -5 -5 -5 -5 -5 -5 -5 -5 -6 -6 -6 -6 -6 -6 -6 -6 -6 -6 -7
-5 -5 -5 -5 -5 -5 -5 -5 -5 -5 -5 -5 -5 -5 -5 -5 -5 -5 -5 -5 -5 -5 -5 -5 -5 -5 -5 -5 -5 -5 -5 -6 -6 -6 -6 -6 -6 -6 -6 -6 -7 -7 -7
-5 -5 -5 -6 -6 -6 -5 -5 -6 -6 -6 -5 -5 -5 -6 -5 -5 -5 -5 -5 -5 -5 -5 -5 -5 -5 -5 -5 -5 -6 -6 -6 -6 -6 -6 -6 -6 -6 -6 -7 -7 -7 -7
-6 -6 -6 -6 -6 -6 -6 -6 -6 -6 -6 -6 -6 -6 -6 -6 -6 -6 -5 -5 -5 -5 -5 -5 -5 -5 -5 -5 -6 -6 -6 -6 -6 -6 -6 -6 -6 -6 -7 -7 -7 -7 -7
-6 -6 -6 -6 -6 -6 -6 -6 -6 -6 -6 -6 -6 -6 -6 -6 -6 -6 -6 -5 -5 -5 -5 -6 -5 -6 -6 -6 -6 -6 -6 -6 -6 -6 -6 -6 -6 -7 -7 -7 -7 -7 -7
-6 -6 -6 -6 -6 -6 -6 -6 -6 -6 -6 -6 -6 -6 -6 -6 -6 -6 -6 -6 -6 -6 -6 -6 -6 -6 -6 -6 -6 -6 -6 -6 -6 -6 -6 -6 -7 -7 -7 -7 -7 -7 -7
Wind_Speed
3 3 3 3 3 3 3 4 3 3 3 4 4 4 4 4 4 4 4 4 4 4 4 4 4 4 3 3 3 3 3 3 5 4 3 3 3 3 5 6 6 6 6
3 3 3 3 2 3 3 3 3 3 3 3 3 4 4 4 4 5 5 5 5 4 4 4 4 3 4 3 3 3 4 3 4 5 4 3 3 3 3 4 5 6 5
2 2 3 3 3 3 3 3 3 3 3 3 3 4 4 4 4 4 5 5 5 5 5 5 4 4 4 3 3 3 3 3 3 3 4 3 2 2 3 4 4 4 6
2 2 3 3 3 3 3 4 4 4 4 4 4 4 4 3 4 3 4 4 4 4 5 5 5 5 5 5 4 4 3 3 3 2 3 3 2 3 2 3 4 3 4
1 2 2 2 2 3 3 3 3 3 4 4 4 3 3 3 3 3 3 4 4 4 4 4 5 5 6 5 4 3 3 3 3 3 3 3 3 2 3 2 4 3 3
1 2 2 1 2 2 2 2 2 3 3 3 4 4 4 3 4 4 4 4 4 4 4 4 4 5 5 7 7 6 5 4 4 4 4 4 4 4 3 3 3 3 4
1 1 1 1 1 2 2 2 3 3 3 3 3 3 3 4 4 5 5 4 5 5 5 4 3 4 4 4 5 6 6 7 7 5 5 6 5 4 3 3 3 4 5
1 1 1 1 1 1 1 2 2 2 3 3 3 3 3 4 5 5 4 3 4 4 5 5 4 4 4 3 3 3 3 4 5 4 5 5 5 3 3 3 3 4 4
1 2 2 1 1 1 1 1 1 1 2 2 3 3 3 3 5 4 4 3 3 3 3 3 4 4 5 4 3 2 3 3 3 4 5 5 6 5 3 1 2 3 4
2 2 2 1 1 1 1 1 1 1 2 1 1 1 2 3 3 3 3 2 2 2 2 3 4 4 5 4 3 3 3 3 1 1 2 3 3 3 4 3 2 3 3
2 2 2 1 1 1 0 0 1 1 1 1 1 1 1 2 2 2 2 2 2 2 2 2 2 4 4 4 3 3 3 2 1 1 1 1 1 1 2 2 2 2 3
1 2 2 2 1 0 1 0 0 1 1 1 1 0 1 1 1 2 2 2 2 2 2 2 2 3 3 3 2 2 2 2 1 1 1 1 1 1 1 2 3 3 3
1 2 2 2 1 1 1 1 0 1 1 1 1 1 1 0 1 1 2 2 2 1 1 2 2 3 2 1 2 2 1 1 1 1 1 2 1 2 1 1 2 2 3
1 1 1 1 1 1 0 0 0 1 1 1 1 1 1 1 1 1 1 0 0 1 0 0 1 2 1 1 1 0 0 1 1 1 1 1 1 1 1 1 1 1 2
1 1 1 1 1 1 0 0 1 1 2 2 2 2 2 2 2 2 1 1 1 1 0 0 0 0 0 0 0 0 1 0 0 1 1 1 1 1 1 1 1 2 2
2 2 1 1 1 1 1 1 2 1 2 2 2 2 2 3 3 3 3 2 2 2 1 1 1 1 1 1 1 0 0 0 1 1 1 1 1 2 2 2 1 1 2
2 2 2 1 1 1 1 1 1 2 2 2 3 3 2 3 3 3 3 2 2 2 1 1 1 1 1 1 1 1 1 1 1 1 1 1 1 2 2 2 1 1 2
2 2 2 1 1 1 1 1 1 1 1 1 2 2 2 3 3 3 2 1 1 1 1 1 1 1 1 1 1 1 1 1 1 1 1 1 1 2 2 2 2 2 2
2 1 1 1 1 1 1 1 1 2 1 1 1 1 2 2 2 2 1 1 1 1 1 1 1 1 1 1 1 1 1 1 1 1 1 2 1 2 2 2 2 2 2
2 2 2 1 1 1 1 2 1 1 1 1 1 1 1 1 1 1 1 1 1 1 1 1 1 1 1 1 1 1 1 1 2 2 2 2 1 1 2 2 1 1 2
1 1 2 1 1 1 1 2 1 1 1 1 1 2 3 1 1 2 1 1 1 1 1 1 1 1 1 1 1 1 2 2 2 2 1 1 1 1 1 1 1 1 1
1 1 1 1 1 1 1 1 1 2 1 2 2 2 3 1 1 2 2 1 1 1 1 1 1 1 1 2 2 2 2 2 2 1 1 1 1 1 1 1 1 1 1
1 1 1 1 1 2 1 1 1 1 1 1 2 1 1 1 1 1 1 1 1 1 1 1 1 1 1 2 2 2 2 2 2 2 2 2 1 1 1 1 1 1 2
1 1 1 1 1 1 1 1 1 1 1 1 1 1 1 1 1 1 1 1 1 1 1 1 1 2 2 2 2 3 3 3 2 2 3 2 2 1 1 1 1 1 2
1 1 1 1 1 1 1 1 1 1 1 1 1 1 1 1 1 1 1 1 1 1 1 2 2 2 2 2 3 3 3 3 3 2 2 2 2 2 2 2 1 1 1
1 1 1 1 1 1 1 1 1 1 1 1 1 1 1 0 1 0 1 1 1 1 2 2 2 2 2 2 3 3 3 3 3 3 2 1 2 2 2 1 1 1 1
Wind_Direction
211 205 200 209 217 213 212 212 212 215 210 213 215 211 214 220 219 212 218 214 223 239 230 223 232 235 235 230 224 224 233 237 260 281 284 291 297 294 309 303 294 286 287
212 206 207 210 208 213 213 215 213 217 216 214 217 217 217 220 220 213 217 219 221 234 234 225 234 239 244 238 229 232 238 242 250 274 285 294 294 289 302 305 306 298 292
207 209 212 207 208 219 216 215 215 217 218 212 214 219 222 221 221 220 217 220 225 236 234 224 231 234 242 245 239 235 241 256 254 260 277 288 294 292 302 304 302 299 298
203 206 219 216 213 224 216 213 217 214 209 209 216 225 226 229 229 224 221 222 229 237 238 225 226 230 233 238 239 236 239 248 251 254 265 275 283 283 287 292 304 297 296
218 222 232 233 227 229 214 214 212 213 211 207 210 220 225 226 225 220 226 228 230 234 239 230 228 234 237 239 245 235 231 238 246 248 256 271 276 273 276 282 293 298 301
246 247 237 230 239 243 218 205 206 214 209 202 208 213 220 230 228 228 228 231 233 231 235 231 232 233 242 254 258 254 241 233 237 243 253 253 258 261 269 275 287 302 301
257 274 249 228 244 265 235 207 210 206 202 206 208 208 220 229 226 237 242 231 230 225 227 225 241 247 248 242 251 255 255 250 244 238 240 246 253 248 248 263 270 288 287
289 287 270 245 251 267 249 221 214 197 198 201 203 208 216 230 230 240 251 242 232 226 228 224 221 226 239 240 244 249 251 258 249 238 231 244 247 242 234 250 267 289 290
292 301 299 262 243 250 250 239 230 200 198 202 205 206 215 229 235 240 246 229 228 234 238 231 221 219 242 248 233 242 268 272 271 261 264 267 270 269 271 278 286 293 298
302 304 305 285 239 228 237 258 262 204 195 190 214 216 218 225 237 243 240 214 220 233 242 244 235 238 243 244 221 218 244 261 266 274 273 283 279 272 274 249 234 266 294
321 323 325 311 256 227 219 235 228 198 180 185 197 240 235 230 231 243 252 220 218 225 230 239 241 253 253 253 249 224 243 255 216 228 249 255 267 272 280 287 274 251 270
344 338 333 330 328 331 145 172 212 186 185 194 190 268 264 250 237 238 263 266 258 221 226 231 232 244 265 279 275 249 260 276 216 219 231 249 265 276 284 292 292 291 275
353 332 329 336 341 343 126 150 183 172 184 208 185 211 254 254 253 271 279 281 295 302 221 232 253 254 261 265 250 253 263 216 193 216 238 253 259 261 275 294 303 317 316
292 298 308 321 327 352 30 115 193 197 192 207 218 223 237 256 246 244 262 263 312 317 38 184 275 276 274 249 247 259 191 202 206 225 242 254 264 262 267 278 301 316 323
266 279 286 284 268 258 336 323 261 240 211 207 218 213 218 240 251 258 255 231 207 213 142 115 122 164 131 111 104 154 153 171 268 236 242 263 272 275 283 290 284 300 303
252 266 267 265 261 233 223 322 344 293 277 262 248 243 251 262 275 270 264 265 277 257 198 188 206 219 228 231 248 264 228 247 249 261 255 257 267 278 293 300 299 292 294
247 258 261 258 250 253 237 227 286 320 294 271 259 259 255 263 272 275 271 266 261 242 210 217 226 233 235 233 239 249 260 266 250 248 264 263 265 269 279 288 296 303 302
252 252 252 251 244 241 248 249 245 252 274 287 277 265 272 280 287 289 285 276 237 224 205 232 237 237 235 229 236 253 260 260 259 251 260 261 254 261 269 276 281 290 299
252 245 242 247 245 236 242 244 249 250 250 263 312 289 287 298 306 305 290 210 209 225 231 237 242 242 238 243 243 247 253 252 254 261 266 266 256 256 261 266 272 285 294
246 250 247 236 227 227 234 232 233 232 233 237 243 257 269 281 279 277 266 235 221 228 232 237 246 243 235 243 246 245 250 253 254 253 257 267 261 253 257 258 261 279 290
230 238 247 244 224 225 241 238 231 227 225 238 253 265 264 246 241 245 249 248 237 230 239 240 240 242 235 237 245 240 246 253 254 252 251 258 254 260 263 257 260 267 274
238 227 228 238 241 240 250 233 223 227 226 239 259 267 265 256 243 244 246 249 255 244 240 236 243 245 233 235 237 236 236 239 245 250 253 259 254 251 254 257 262 280 280
240 222 239 256 250 254 268 249 225 224 229 241 249 254 258 253 243 242 245 267 274 271 268 254 251 264 273 258 247 240 239 242 246 243 244 250 248 242 234 245 255 278 280
252 234 242 260 261 246 239 241 233 227 230 242 252 255 253 256 250 248 263 291 309 296 288 274 256 252 265 273 267 265 261 253 243 233 233 236 236 238 239 248 254 258 264
262 250 241 247 253 246 239 239 241 233 232 248 251 258 257 250 264 286 306 311 309 304 297 287 269 257 259 271 274 272 266 261 256 244 232 229 224 226 223 230 242 255 255
257 255 249 247 254 253 240 234 234 235 233 247 255 257 260 264 280 295 321 322 318 304 301 297 280 274 268 269 267 269 269 262 260 260 240 223 204 215 212 213 223 239 243
Height
1469 1469 1469 1469 1470 1471 1471 1472 1472 1473 1474 1475 1476 1477 1478 1479 1480 1482 1483 1483 1484 1484 1485 1486 1486 1487 1487 1488 1489 1489 1489 1489 1488 1487 1487 1486 1485 1485 1484 1483 1482 1480 1479
1465 1465 1465 1465 1466 1466 1467 1468 1469 1469 1470 1471 1472 1473 1473 1475 1476 1477 1478 1479 1480 1480 1481 1481 1482 1483 1483 1484 1484 1485 1485 1485 1485 1483 1482 1482 1481 1481 1480 1479 1477 1476 1475
1462 1462 1461 1462 1462 1462 1462 1463 1464 1465 1466 1467 1468 1468 1469 1470 1472 1473 1474 1474 1475 1476 1476 1477 1478 1478 1479 1479 1480 1480 1480 1481 1480 1480 1478 1478 1477 1476 1475 1474 1473 1472 1471
1459 1458 1458 1458 1458 1458 1458 1459 1459 1460 1461 1462 1463 1464 1465 1466 1467 1468 1469 1470 1471 1472 1472 1473 1473 1474 1475 1475 1476 1476 1476 1476 1476 1476 1475 1474 1473 1472 1471 1470 1468 1467 1466
1455 1455 1454 1454 1454 1454 1454 1454 1455 1456 1457 1458 1459 1460 1461 1462 1463 1464 1465 1465 1466 1467 1468 1468 1469 1470 1471 1472 1472 1472 1472 1472 1472 1471 1470 1470 1469 1468 1467 1466 1464 1463 1462
1452 1451 1451 1450 1450 1450 1450 1450 1451 1452 1453 1454 1455 1456 1457 1458 1458 1459 1460 1461 1462 1462 1463 1464 1465 1466 1467 1467 1468 1468 1468 1468 1467 1467 1466 1465 1465 1465 1464 1463 1461 1460 1458
1449 1448 1448 1447 1446 1446 1446 1447 1447 1448 1449 1450 1451 1452 1453 1454 1455 1455 1456 1457 1457 1458 1459 1460 1461 1462 1462 1463 1463 1463 1464 1464 1464 1463 1462 1461 1461 1460 1460 1458 1458 1457 1455
1446 1445 1445 1444 1443 1443 1443 1444 1444 1445 1446 1446 1448 1448 1449 1450 1451 1452 1452 1453 1453 1454 1455 1456 1457 1457 1458 1458 1458 1458 1458 1459 1459 1458 1458 1458 1457 1457 1456 1455 1454 1453 1452
1443 1442 1441 1441 1440 1440 1440 1441 1441 1442 1442 1443 1444 1445 1446 1446 1447 1448 1448 1449 1449 1450 1451 1452 1452 1453 1454 1454 1454 1454 1454 1454 1454 1454 1454 1454 1453 1453 1452 1451 1450 1449 1447
1440 1440 1439 1439 1438 1438 1438 1438 1438 1439 1439 1440 1441 1442 1442 1443 1443 1444 1445 1445 1446 1446 1447 1447 1448 1449 1450 1450 1450 1450 1450 1450 1450 1450 1450 1449 1449 1449 1448 1448 1447 1446 1444
1438 1438 1437 1436 1436 1436 1435 1435 1436 1436 1437 1437 1438 1439 1439 1440 1440 1441 1442 1442 1442 1442 1442 1443 1444 1444 1445 1445 1446 1446 1446 1446 1446 1446 1445 1445 1445 1445 1444 1444 1444 1443 1442
1436 1435 1435 1434 1434 1434 1433 1433 1434 1434 1434 1434 1435 1436 1437 1437 1438 1438 1438 1439 1439 1439 1438 1439 1440 1441 1441 1442 1442 1442 1443 1443 1442 1442 1442 1441 1441 1441 1440 1440 1440 1440 1439
1434 1433 1433 1432 1432 1432 1432 1431 1431 1432 1432 1432 1433 1433 1434 1434 1435 1435 1435 1436 1436 1436 1435 1436 1437 1437 1438 1438 1438 1439 1439 1439 1439 1438 1438 1438 1438 1438 1437 1437 1436 1436 1435
1431 1431 1431 1430 1430 1430 1430 1430 1430 1429 1430 1430 1430 1431 1431 1432 1432 1432 1433 1433 1433 1433 1433 1433 1434 1434 1434 1435 1435 1435 1435 1436 1435 1435 1435 1435 1434 1434 1434 1434 1433 1432 1432
1429 1429 1429 1428 1428 1428 1428 1428 1428 1428 1428 1428 1429 1429 1429 1429 1430 1430 1430 1430 1430 1430 1431 1431 1431 1431 1431 1431 1432 1432 1432 1432 1432 1432 1432 1431 1431 1431 1431 1431 1431 1430 1429
1426 1426 1426 1426 1426 1426 1427 1427 1426 1427 1426 1427 1427 1427 1427 1428 1428 1428 1428 1428 1428 1428 1428 1428 1428 1429 1429 1429 1429 1429 1429 1429 1429 1429 1429 1429 1429 1429 1428 1428 1428 1428 1427
1424 1424 1424 1424 1424 1424 1425 1424 1424 1425 1425 1425 1425 1425 1426 1426 1426 1426 1425 1425 1426 1426 1426 1426 1426 1426 1426 1427 1427 1427 1427 1427 1427 1427 1427 1427 1427 1427 1426 1426 1426 1425 1425
1421 1421 1422 1422 1422 1422 1422 1422 1422 1422 1422 1422 1423 1423 1423 1424 1424 1423 1423 1423 1423 1423 1423 1424 1424 1424 1424 1425 1425 1425 1425 1425 1425 1425 1425 1425 1425 1425 1424 1424 1424 1423 1423
1419 1419 1419 1419 1419 1420 1420 1420 1420 1420 1420 1420 1420 1421 1421 1421 1421 1421 1421 1421 1421 1421 1421 1421 1422 1422 1422 1422 1422 1422 1422 1422 1422 1423 1423 1423 1423 1422 1422 1422 1422 1421 1421
1416 1416 1417 1417 1417 1417 1417 1417 1417 1418 1418 1418 1418 1418 1419 1419 1419 1419 1419 1419 1419 1419 1419 1419 1419 1419 1419 1420 1420 1420 1420 1420 1420 1420 1420 1420 1420 1420 1420 1420 1420 1419 1419
1414 1414 1414 1414 1415 1415 1415 1415 1415 1416 1416 1416 1416 1417 1417 1417 1416 1416 1417 1417 1417 1416 1417 1417 1417 1417 1417 1417 1417 1417 1417 1417 1417 1418 1418 1418 1418 1418 1418 1418 1418 1418 1417
1411 1412 1412 1412 1412 1413 1413 1413 1413 1413 1414 1414 1414 1415 1415 1415 1415 1415 1415 1415 1415 1415 1415 1415 1415 1415 1415 1415 1415 1415 1415 1415 1415 1415 1416 1416 1416 1416 1416 1416 1416 1416 1415
1409 1410 1410 1410 1411 1411 1411 1411 1411 1411 1412 1412 1412 1412 1412 1412 1412 1412 1413 1413 1413 1413 1413 1413 1413 1413 1413 1413 1413 1413 1413 1413 1413 1413 1413 1414 1414 1414 1414 1414 1414 1414 1413
1408 1408 1408 1408 1409 1409 1409 1409 1409 1409 1410 1410 1410 1410 1410 1410 1411 1411 1411 1411 1411 1411 1411 1411 1410 1410 1411 1411 1411 1411 1411 1411 1411 1411 1411 1411 1412 1412 1412 1412 1412 1412 1412
1406 1406 1406 1407 1407 1407 1408 1408 1408 1408 1408 1408 1408 1408 1409 1409 1409 1409 1409 1409 1409 1409 1409 1409 1408 1408 1408 1409 1409 1409 1408 1408 1409 1409 1409 1409 1410 1410 1410 1410 1410 1410 1410
1405 1405 1405 1405 1406 1406 1406 1406 1406 1406 1407 1407 1407 1407 1407 1407 1407 1407 1407 1407 1407 1407 1407 1407 1407 1407 1407 1406 1406 1406 1406 1407 1407 1407 1407 1407 1407 1408 1408 1408 1408 1409 1409